This demonstration page uses our WeatherBlox Daily Observations layout. Learn more.

Left ArrowRight Arrow

40.92501, -98.34201

Hourly Observations for February 25, 2022

Temp ( °F °C ) Dew Point ( °F °C ) Humidity (%) Winds ( mph kmh ) Pressure ( in mb ) Visibility ( mi km ) Precip ( " mm )
12:53 am 00:53 Clear -1 -18.3 -7 -21.7 75 75 NW 7 11 30.57 1035 10 16 0.00 0.00
1:53 am 01:53 Clear -3 -19.4 -8 -22.2 79 79 WNW 6 9 30.58 1036 10 16 0.00 0.00
2:53 am 02:53 Clear -2 -18.9 -7 -21.7 79 79 W 6 9 30.59 1036 10 16 0.00 0.00
3:53 am 03:53 Clear -3 -19.4 -8 -22.2 79 79 WNW 6 9 30.58 1036 10 16 0.00 0.00
4:53 am 04:53 Clear -2 -18.9 -8 -22.2 75 75 W 6 9 30.61 1037 10 16 0.00 0.00
5:53 am 05:53 Clear -3 -19.4 -8 -22.2 79 79 W 5 7 30.64 1038 10 16 0.00 0.00
6:53 am 06:53 Clear -3 -19.4 -8 -22.2 79 79 W 3 6 30.65 1038 10 16 0.00 0.00
7:53 am 07:53 Sunny 1 -17.2 -7 -21.7 68 68 WNW 5 7 30.66 1038 10 16 0.00 0.00
8:53 am 08:53 Sunny 7 -13.9 0 -17.8 73 73 WSW 5 7 30.68 1039 10 16 0.00 0.00
9:53 am 09:53 Sunny 13 -10.6 1 -17.2 59 59 SW 5 7 30.68 1039 10 16 0.00 0.00
10:53 am 10:53 Sunny 18 -7.8 3 -16.1 52 52 SW 8 13 30.68 1039 10 16 0.00 0.00
11:53 am 11:53 Sunny 22 -5.6 4 -15.6 46 46 SSW 8 13 30.66 1038 10 16 0.00 0.00
12:53 pm 12:53 Sunny 26 -3.3 5 -15 40 40 SW 8 13 30.62 1037 10 16 0.00 0.00
1:53 pm 13:53 Sunny 29 -1.7 5 -15 36 36 SW 6 9 30.58 1036 10 16 0.00 0.00
2:53 pm 14:53 Sunny 33 0.6 5 -15 30 30 SW 9 15 30.55 1034 10 16 0.00 0.00
3:53 pm 15:53 Sunny 33 0.6 4 -15.6 29 29 SW 14 22 30.54 1034 10 16 0.00 0.00
4:53 pm 16:53 Sunny 33 0.6 4 -15.6 29 29 SSW 12 19 30.53 1034 10 16 0.00 0.00
5:53 pm 17:53 Sunny 31 -0.6 4 -15.6 31 31 S 9 15 30.53 1034 10 16 0.00 0.00
6:53 pm 18:53 Clear 25 -3.9 3 -16.1 39 39 S 9 15 30.55 1034 10 16 0.00 0.00
7:53 pm 19:53 Clear 23 -5 3 -16.1 42 42 S 9 15 30.54 1034 10 16 0.00 0.00
8:53 pm 20:53 Clear 22 -5.6 3 -16.1 44 44 S 13 20 30.54 1034 10 16 0.00 0.00
9:53 pm 21:53 Clear 21 -6.1 4 -15.6 47 47 S 9 15 30.55 1034 10 16 0.00 0.00
10:53 pm 22:53 Clear 21 -6.1 4 -15.6 47 47 SSW 13 20 30.54 1034 10 16 0.00 0.00
11:53 pm 23:53 Clear 20 -6.7 3 -16.1 48 48 SSW 12 19 30.52 1034 10 16 0.00 0.00

Powered by AerisWeather